This demonstration page uses our WeatherBlox Daily Observations layout. Learn more.

Hourly Observations for January 13, 2020

Temp ( °F °C ) Dew Point ( °F °C ) Humidity (%) Winds ( mph kmh ) Pressure ( in mb ) Visibility ( mi km ) Precip ( " mm )
12:54 am 00:54 Cloudy 24 -4.4 21 -6.1 88 88 SW 3 6 30.16 1021 8 12.87472 0 0
1:54 am 01:54 Cloudy 27 -2.8 24 -4.4 89 89 S 5 7 30.16 1021 10 16.0934 0 0
2:54 am 02:54 Cloudy 26 -3.3 24 -4.4 92 92 SSW 6 9 30.15 1021 9 14.48406 0 0
3:20 am 03:20 Cloudy 26 -3.3 24 -4.4 92 92 S 5 7 30.19 1022 8 12.87472 0 0
3:54 am 03:54 Cloudy with Mist and Fog 25 -3.9 23 -5 92 92 S 8 13 30.15 1021 4 6.43736 0 0
4:54 am 04:54 Cloudy with Mist and Fog 26 -3.3 24 -4.4 92 92 SSE 9 15 30.15 1021 4 6.43736 0 0
5:54 am 05:54 Cloudy with Mist and Fog 25 -3.9 23 -5 92 92 S 10 17 30.17 1022 5 8.0467 0 0
6:09 am 06:09 Cloudy with Mist and Fog 25 -3.9 23 -5 92 92 SSE 9 15 30.19 1022 2.5 4.02335 0 0
6:54 am 06:54 Cloudy with Mist and Fog 25 -3.9 23 -5 92 92 SSE 10 17 30.16 1021 2 3.21868 0 0
7:15 am 07:15 Cloudy with Mist and Fog 25 -3.9 24 -4.4 96 96 S 9 15 30.2 1023 1.5 2.41401 0 0
7:30 am 07:30 Cloudy with Mist and Fog 26 -3.3 24 -4.4 92 92 SSE 9 15 30.19 1022 3 4.82802 0 0
7:50 am 07:50 Cloudy with Light Snow 25 -4 23 -5 93 93 SE 9 15 30.18 1022 2.5 4.02335 0.001 0.001
7:54 am 07:54 Cloudy with Mist and Fog 25 -3.9 23 -5 92 92 SE 8 13 30.14 1021 3 4.82802 0.001 0.001
8:54 am 08:54 Cloudy with Mist and Fog 26 -3.3 24 -4.4 92 92 ESE 9 15 30.12 1020 4 6.43736 0 0
9:54 am 09:54 Cloudy 27 -2.8 25 -3.9 92 92 ESE 13 20 30.11 1020 7 11.26538 0 0
10:25 am 10:25 Cloudy with Mist and Fog 28 -2.2 26 -3.3 92 92 ESE 9 15 30.14 1021 5 8.0467 0 0
10:54 am 10:54 Cloudy with Mist and Fog 29 -1.7 27 -2.8 92 92 SE 9 15 30.1 1019 5 8.0467 0 0
11:24 am 11:24 Cloudy with Mist and Fog 30 -1.1 27 -2.8 88 88 SE 8 13 30.12 1020 2 3.21868 0 0
11:54 am 11:54 Cloudy with Mist and Fog 31 -0.6 29 -1.7 92 92 SSE 12 19 30.07 1018 2 3.21868 0 0
12:54 pm 12:54 Cloudy with Mist and Fog 31 -0.6 30 -1.1 96 96 SE 8 13 30.02 1017 2 3.21868 0 0
1:01 pm 13:01 Cloudy with Fog 32 0 30 -1.1 92 92 SE 10 17 30.03 1017 0.5 0.80467 0 0
1:54 pm 13:54 Cloudy with Mist and Fog 32 0 31 -0.6 96 96 SE 9 15 29.98 1015 0.75 1.207005 0 0
2:16 pm 14:16 Cloudy with Mist and Fog 33 0.6 32 0 96 96 SSE 9 15 29.99 1015 1 1.60934 0 0
2:54 pm 14:54 Cloudy with Mist and Fog 33 0.6 32 0 96 96 S 9 15 29.96 1014 2.5 4.02335 0 0
3:54 pm 15:54 Cloudy with Mist and Fog 34 1.1 32 0 92 92 SSE 10 17 29.96 1015 2.5 4.02335 0 0
4:54 pm 16:54 Cloudy with Mist and Fog 34 1.1 32 0 92 92 S 12 19 29.97 1015 2.5 4.02335 0 0
5:09 pm 17:09 Cloudy with Mist and Fog 34 1.1 32 0 92 92 S 14 22 29.98 1015 1.75 2.816345 0 0
5:20 pm 17:20 Cloudy with Mist and Fog 34 1.1 32 0 92 92 S 12 19 30 1016 2.5 4.02335 0 0
5:38 pm 17:38 Cloudy with Mist and Fog 34 1.1 32 0 92 92 SSE 10 17 29.98 1015 1.5 2.41401 0 0
5:54 pm 17:54 Cloudy with Mist and Fog 34 1.1 33 0.6 97 97 S 9 15 29.98 1015 1.5 2.41401 0 0
6:15 pm 18:15 Cloudy with Mist and Fog 34 1.1 33 0.6 97 97 S 6 9 30.01 1016 2 3.21868 0 0
6:54 pm 18:54 Cloudy with Mist and Fog 34 1.1 33 0.6 97 97 SSW 6 9 30.03 1017 2 3.21868 0 0
7:01 pm 19:01 Cloudy with Mist and Fog 34 1.1 33 0.6 97 97 S 7 11 30.03 1017 3 4.82802 0 0
7:41 pm 19:41 Cloudy with Mist and Fog 34 1.1 33 0.6 97 97 SSW 3 6 30.04 1017 2 3.21868 0 0
7:54 pm 19:54 Cloudy with Mist and Fog 34 1.1 33 0.6 97 97 S 3 6 30.03 1017 0.75 1.207005 0 0
8:37 pm 20:37 Mostly Cloudy with Fog 34 1.1 32 0 92 92 S 7 11 30.03 1017 0.25 0.402335 0 0
8:54 pm 20:54 Mostly Cloudy with Fog 34 1.1 33 0.6 97 97 S 7 11 30.02 1017 0.25 0.402335 0 0
9:14 pm 21:14 Mostly Cloudy with Fog 34 1.1 33 0.6 97 97 S 5 7 30.03 1017 0.5 0.80467 0 0
9:38 pm 21:38 Cloudy with Mist and Fog 34 1.1 32 0 92 92 WSW 5 7 30.04 1017 2 3.21868 0 0
9:40 pm 21:40 Cloudy with Mist and Fog 34 1.1 32 0 92 92 WSW 6 9 30.04 1017 3 4.82802 0 0
9:54 pm 21:54 Cloudy with Mist and Fog 34 1.1 32 0 92 92 SW 3 6 30.03 1017 6 9.65604 0 0
10:54 pm 22:54 Partly Cloudy 33 0.6 30 -1.1 89 89 SW 5 7 30.06 1018 9 14.48406 0 0
11:37 pm 23:37 Partly Cloudy with Mist and Fog 31 -0.6 29 -1.7 92 92 SSW 9 15 30.07 1018 3 4.82802 0 0
11:42 pm 23:42 Mostly Cloudy with Mist and Fog 31 -0.6 29 -1.7 92 92 SW 7 11 30.08 1019 2.5 4.02335 0 0
11:46 pm 23:46 Mostly Cloudy with Mist and Fog 31 -0.6 29 -1.7 92 92 SSW 6 9 30.08 1019 3 4.82802 0 0
11:54 pm 23:54 Mostly Cloudy with Mist and Fog 31 -0.6 30 -1.1 96 96 SW 7 11 30.05 1018 2.5 4.02335 0 0

Powered by AerisWeather